OBJECT C, 63984

Orbit data source: Space-Track

You're viewing an Uncataloged Satellite

Recently launched and/or uncataloged satellites may have evolving metadata. Metadata may include but not limited to: Owner, Maufacturer, Bus, Motor, and Mission.

OBJECT C, 63984 is a Chinese satellite in SSO that was launched on Wed, 14 May 2025 UTC via a CHANG ZHENG 2D launch vehicle from the Jiuquan Satellite Launch Center, China (JSC). Unknown objects in Earth's orbit typically refer to objects detected orbiting the Earth but have not yet been identified or cataloged. These objects could be anything from previously untracked satellites, spent rocket stages, debris from satellite collisions, or even natural meteoroids temporarily captured by Earth's gravity.

Loading next visibility...
Identifier
63984, 2025-100C
Orbit
SSO
Last TLE update
8 hours ago
Origin
Flag of CNCN / PRC
Manufacturer
Unknown
Mission
Operational Commercial Technology
Bus & Motor
Unknown
Mass
Unknown
Launch date (UTC)
2025-05-14 (3 months ago)
Launch vehicle
CHANG ZHENG 2D
Launch site
Jiuquan Satellite Launch Center, China (JSC)
Object type
Unknown
Shape & HBR
Box + 2 Pan, 0.1 m
Radar Cross Section
0.135 m², Medium (>0.1 m² and < 1m²)

Expand to show TLE details & history

TLE from 8 hours ago
0 OBJECT C
1 63984U 25100C   25211.18428894  .00009902  00000-0  47114-3 0  9993
2 63984  97.4028 285.3950 0011034  60.8260 299.4077 15.19314782 11680
Epoch: 2025-07-30T04:25Z
TLE epoch observation values (Epoch: 2025-07-30T04:25:22.564Z)
Latitude
-0.00006°
Longitude
-89.01617°
Altitude
507.275 km
Speed
7.612 km/s
True Right ascension
19h 01m 34s
True Declination
0° 00' 00"
Sunlit
Object was in full shadow at epoch
Visualization orbit readout
Latitude
63.44749°
Longitude
106.31224°
Altitude
514.583 km
Speed
7.615 km/s
Apparent Right ascension
12h 08m 37s
Apparent Declination
20° 27' 05"
Sunlit
Object is in daylight
Visualization observer readout
Local Sidereal Time
02:23:08
Azimuth
34.023° NE
Elevation
-21.974°
Doppler factor
1
Orbital elements
Apogee altitude
512.472 km
Perigee altitude
497.282 km
Semi-major axis
6,883.014 km
Eccentricity
0.0011
Inclination
97.4028°
RAAN
285.395°
Arg. of periapsis
60.826°
True anomaly
299.29748°
Mean anomaly
299.4077°
Eccentric anomaly
299.3526°
Mean motion
3.8008 °/min
Orbital period
94.72 mins
BSTAR
0.00047114
Loading maneuver chart data...
Loading SW <> Apogee altitude chart data...
Loading historical data...
Loading historical data...
Loading historical data...
Loading historical data...
Loading historical data...
Loading historical data...
Loading historical data...
|